Date,TemperatureHighF,TemperatureAvgF,TemperatureLowF,DewpointHighF,DewpointAvgF,DewpointLowF,HumidityHigh,HumidityAvg,HumidityLow,PressureMaxIn,PressureMinIn,WindSpeedMaxMPH,WindSpeedAvgMPH,GustSpeedMaxMPH,PrecipitationSumIn
2013-1-1,64,54,47,64,52,43,99,95,85,0.00,40.00,9,7,22,2.49
2013-1-2,47,43,40,43,39,36,88,85,81,0.00,40.00,7,5,16,0.02
2013-1-3,56,44,33,38,35,28,96,73,37,0.00,40.00,9,5,17,0.00
2013-1-4,48,44,41,38,36,33,83,72,61,0.00,40.00,8,5,14,0.01
2013-1-5,45,43,42,44,42,37,98,96,73,0.00,40.00,6,4,13,1.07
2013-1-6,59,47,38,46,42,37,98,86,50,0.00,40.00,8,6,17,0.05
2013-1-7,59,45,34,45,39,34,98,82,48,0.00,40.00,6,5,12,0.01
2013-1-8,62,54,46,62,52,42,99,94,83,0.00,40.00,9,6,25,0.55
2013-1-9,65,63,60,65,63,60,99,99,99,0.00,40.00,13,6,24,2.75
2013-1-10,69,62,53,65,60,52,99,91,65,0.00,40.00,10,5,22,1.03
2013-1-11,76,60,44,62,52,44,99,80,45,0.00,40.00,7,4,16,0.07
2013-1-12,75,72,63,71,69,62,99,92,80,0.00,40.00,12,9,25,0.06
2013-1-13,72,52,43,69,50,40,97,91,86,0.00,40.00,11,8,26,0.61
2013-1-14,44,40,37,42,38,36,96,91,82,0.00,40.00,10,7,19,0.35
2013-1-15,38,36,34,36,34,32,97,94,89,0.00,40.00,8,6,17,0.08
2013-1-16,53,39,33,36,33,28,94,78,46,0.00,40.00,8,5,17,0.01
2013-1-17,62,41,28,39,31,27,95,73,30,0.00,40.00,8,3,14,0.00
2013-1-18,63,44,32,39,32,24,97,72,22,0.00,40.00,7,4,13,0.00
2013-1-19,66,45,30,46,39,29,97,82,45,0.00,40.00,5,3,11,0.00
2013-1-20,70,50,35,53,43,34,98,81,40,0.00,40.00,4,1,7,0.00
2013-1-21,70,51,39,53,45,38,98,83,47,0.00,40.00,5,1,13,0.00
2013-1-22,70,52,38,48,43,36,95,76,44,0.00,40.00,6,4,12,0.00
2013-1-23,74,58,44,60,51,43,98,81,46,0.00,40.00,8,5,18,0.00
2013-1-24,73,61,50,64,58,49,99,90,70,0.00,40.00,9,5,16,0.00
2013-1-25,77,65,56,65,59,56,99,83,50,0.00,40.00,10,5,19,0.00
2013-1-26,77,64,57,65,59,54,99,86,47,0.00,40.00,6,4,12,0.00
2013-1-27,76,64,53,63,59,52,99,85,60,0.00,40.00,11,7,21,0.02
2013-1-28,78,70,65,66,64,62,95,83,62,0.00,40.00,11,8,23,0.01
2013-1-29,76,72,69,70,68,66,94,88,74,0.00,40.00,15,11,30,0.22
2013-1-30,72,54,38,69,38,27,97,60,34,0.00,40.00,18,10,36,1.02
2013-1-31,66,54,30,41,29,22,96,45,20,0.00,40.00,7,6,16,0.00